Edinburg, TX

6:29 PM CST on February 24, 2018 (GMT -0600)
Edinburg

Weather History for KEBG - September, 2012

Change the Weather History Date:

Monday, September 10, 2012

  Actual Average (KMFE) Record (KMFE)
Temperature  
Mean Temperature 81 °F -  
Max Temperature 96 °F 92 °F 103 °F (2016)
Min Temperature 67 °F 73 °F 66 °F (1988)
Cooling Degree Days 16    
Growing Degree Days 31 (Base 50)    
Moisture  
Dew Point 61 °F    
Average Humidity 57    
Maximum Humidity 86    
Minimum Humidity 24    
Precipitation  
Precipitation 0.00 in - - ()
Sea Level Pressure  
Sea Level Pressure 30.03 in    
Wind  
Wind Speed 3 mph (ENE)    
Max Wind Speed 21 mph    
Max Gust Speed 28 mph    
Visibility 8 miles    
Events      
Averages and records for this station are not official NWS values.
T = Trace of Precipitation, MM = Missing Value Source: NWS Daily Summary

Daily Weather History Graph

Daily Weather History Graph

Search for Another Location

Airport or City:

Trip Planner

Search our weather history database for the weather conditions in past years. The results will help you decide how hot, cold, wet, or windy it might be!

Date:

Astronomy

Sep. 10, 2012 Rise Set
Actual Time 7:16 AM CDT 7:41 PM CDT
Civil Twilight 6:53 AM CDT 8:05 PM CDT
Nautical Twilight 6:25 AM CDT 8:32 PM CDT
Astronomical Twilight 5:58 AM CDT 8:59 PM CDT
Moon 2:02 AM CDT (9/10) 3:50 PM CDT (9/10)
Length of Visible Light 13h 12m
Length of Day
12h 25m
Waning Crescent, 30% of the Moon is Illuminated
Sep 10
Waning Crescent
Sep 15
New
Sep 22
First Quarter
Sep 29
Full
Oct 8
Last Quarter

Hourly Weather History & Observations

Time (CDT) Temp. Heat Index Dew Point Humidity Pressure Visibility Wind Dir Wind Speed Gust Speed Precip Events Conditions
12:15 AM 73.2 °F - 64.6 °F 74% 30.05 in 10.0 mi Calm Calm - N/A   Clear
12:35 AM 72.0 °F - 65.1 °F 79% 30.05 in 10.0 mi Calm Calm - N/A   Clear
12:55 AM 71.1 °F - 65.3 °F 82% 30.05 in 10.0 mi Calm Calm - N/A   Clear
1:15 AM 71.1 °F - 65.3 °F 82% 30.06 in 10.0 mi Calm Calm - N/A   Clear
1:35 AM 71.2 °F - 64.9 °F 80% 30.05 in 7.0 mi Calm Calm - N/A   Clear
1:55 AM 70.7 °F - 64.2 °F 80% 30.05 in 7.0 mi Calm Calm - N/A   Clear
2:15 AM 70.7 °F - 64.6 °F 81% 30.05 in 7.0 mi Calm Calm - N/A   Clear
2:35 AM 70.3 °F - 64.0 °F 80% 30.04 in 5.0 mi Calm Calm - N/A   Haze
2:55 AM 70.3 °F - 64.0 °F 80% 30.04 in 7.0 mi Calm Calm - N/A   Clear
3:15 AM 70.7 °F - 64.0 °F 79% 30.04 in 7.0 mi Calm Calm - N/A   Clear
3:35 AM 70.2 °F - 63.9 °F 80% 30.03 in 7.0 mi Calm Calm - N/A   Clear
3:55 AM 70.0 °F - 64.4 °F 82% 30.03 in 7.0 mi Calm Calm - N/A   Clear
4:15 AM 69.6 °F - 63.9 °F 82% 30.03 in 7.0 mi Calm Calm - N/A   Clear
4:35 AM 69.1 °F - 63.9 °F 83% 30.03 in 7.0 mi Calm Calm - N/A   Clear
4:55 AM 68.9 °F - 64.2 °F 85% 30.03 in 7.0 mi Calm Calm - N/A   Clear
5:15 AM 69.4 °F - 64.4 °F 84% 30.03 in 7.0 mi Calm Calm - N/A   Clear
5:35 AM 68.9 °F - 63.7 °F 83% 30.03 in 7.0 mi Calm Calm - N/A   Clear
5:55 AM 68.9 °F - 63.9 °F 84% 30.04 in 7.0 mi Calm Calm - N/A   Clear
6:15 AM 68.2 °F - 63.0 °F 83% 30.04 in 7.0 mi Calm Calm - N/A   Clear
6:35 AM 68.2 °F - 63.5 °F 85% 30.04 in 7.0 mi Calm Calm - N/A   Clear
6:55 AM 68.0 °F - 63.7 °F 86% 30.05 in 7.0 mi Calm Calm - N/A   Clear
7:15 AM 68.0 °F - 63.5 °F 85% 30.05 in 7.0 mi Calm Calm - N/A   Clear
7:35 AM 67.3 °F - 62.8 °F 85% 30.06 in 5.0 mi Calm Calm - N/A   Clear
7:55 AM 67.1 °F - 62.8 °F 86% 30.07 in 5.0 mi Calm Calm - N/A   Clear
8:15 AM 69.1 °F - 64.2 °F 84% 30.07 in 5.0 mi Calm Calm - N/A   Haze
8:35 AM 71.8 °F - 64.9 °F 79% 30.08 in 5.0 mi Calm Calm - N/A   Haze
8:55 AM 74.3 °F - 65.3 °F 73% 30.08 in 7.0 mi Calm Calm - N/A   Clear
9:15 AM 77.0 °F - 65.7 °F 68% 30.09 in 7.0 mi Calm Calm - N/A   Clear
9:55 AM 81.5 °F 82.9 °F 63.7 °F 55% 30.09 in 7.0 mi Calm Calm - N/A   Clear
10:15 AM 83.5 °F 84.1 °F 62.1 °F 48% 30.09 in 7.0 mi ESE 3.5 mph - N/A   Clear
10:35 AM 85.5 °F 85.9 °F 62.1 °F 45% 30.10 in 7.0 mi Calm Calm - N/A   Clear
10:55 AM 86.2 °F 86.3 °F 61.0 °F 43% 30.09 in 7.0 mi East 6.9 mph - N/A   Clear
11:15 AM 87.1 °F 86.5 °F 59.5 °F 39% 30.09 in 7.0 mi NE 5.8 mph - N/A   Clear
11:35 AM 88.3 °F 87.1 °F 57.4 °F 35% 30.09 in 7.0 mi NE 8.1 mph - N/A   Clear
11:55 AM 88.5 °F 87.3 °F 57.4 °F 35% 30.08 in 7.0 mi ENE 9.2 mph - N/A   Clear
12:15 PM 89.1 °F 87.7 °F 57.6 °F 34% 30.07 in 7.0 mi NE 3.5 mph - N/A   Clear
12:35 PM 90.3 °F 89.0 °F 57.6 °F 33% 30.07 in 10.0 mi NNE 8.1 mph - N/A   Scattered Clouds
12:55 PM 90.3 °F 88.8 °F 56.3 °F 32% 30.05 in 7.0 mi Calm Calm - N/A   Scattered Clouds
1:15 PM 91.6 °F 89.8 °F 55.8 °F 30% 30.04 in 7.0 mi ENE 4.6 mph - N/A   Clear
1:35 PM 92.7 °F 90.6 °F 55.2 °F 28% 30.03 in 7.0 mi NNE 8.1 mph 16.1 mph N/A   Clear
1:55 PM 92.3 °F 90.2 °F 54.5 °F 28% 30.02 in 7.0 mi NNE 3.5 mph - N/A   Clear
2:15 PM 93.9 °F 91.7 °F 53.8 °F 26% 30.02 in 7.0 mi NNW 4.6 mph - N/A   Clear
2:35 PM 93.7 °F 91.7 °F 54.7 °F 27% 30.00 in 7.0 mi Calm Calm - N/A   Clear
2:55 PM 94.1 °F 91.9 °F 54.5 °F 26% 29.99 in 5.0 mi NNE 10.4 mph - N/A   Haze
3:15 PM 95.0 °F - 52.3 °F 24% 29.99 in 7.0 mi ENE 5.8 mph - N/A   Scattered Clouds
3:35 PM 95.9 °F 93.9 °F 54.9 °F 25% 29.97 in 10.0 mi NNE 8.1 mph - N/A   Scattered Clouds
3:55 PM 95.5 °F 93.4 °F 54.5 °F 25% 29.97 in 7.0 mi North 8.1 mph - N/A   Scattered Clouds
4:15 PM 95.5 °F 93.4 °F 54.3 °F 25% 29.97 in 7.0 mi ENE 6.9 mph - N/A   Scattered Clouds
4:35 PM 95.4 °F 93.5 °F 55.2 °F 26% 29.96 in 7.0 mi ENE 12.7 mph 16.1 mph N/A   Clear
4:55 PM 94.8 °F 92.5 °F 54.3 °F 25% 29.96 in 7.0 mi North 5.8 mph - N/A   Clear
5:15 PM 94.3 °F 92.1 °F 54.1 °F 26% 29.96 in 7.0 mi ENE 12.7 mph 17.3 mph N/A   Clear
5:35 PM 94.1 °F 92.2 °F 55.6 °F 27% 29.95 in 7.0 mi East 11.5 mph 17.3 mph N/A   Scattered Clouds
5:55 PM 92.1 °F 91.1 °F 58.3 °F 32% 29.96 in 7.0 mi East 20.7 mph 27.6 mph N/A   Scattered Clouds
6:15 PM 90.9 °F 90.0 °F 59.0 °F 34% 29.96 in 7.0 mi East 20.7 mph - N/A   Clear
6:35 PM 89.4 °F 88.4 °F 58.6 °F 35% 29.97 in 10.0 mi East 19.6 mph - N/A   Clear
6:55 PM 88.3 °F 87.8 °F 59.9 °F 38% 29.97 in 10.0 mi East 20.7 mph 24.2 mph N/A   Clear
7:15 PM 86.9 °F 86.7 °F 60.4 °F 41% 29.98 in 7.0 mi East 19.6 mph 24.2 mph N/A   Clear
7:35 PM 85.3 °F 85.4 °F 61.0 °F 44% 29.98 in 7.0 mi East 17.3 mph - N/A   Clear
7:55 PM 84.2 °F 84.8 °F 62.1 °F 47% 29.99 in 7.0 mi East 15.0 mph - N/A   Clear
8:15 PM 83.5 °F 84.5 °F 62.8 °F 50% 29.99 in 10.0 mi East 10.4 mph - N/A   Clear
8:35 PM 82.6 °F 83.8 °F 63.1 °F 52% 30.00 in 10.0 mi East 9.2 mph - N/A   Clear
8:55 PM 81.9 °F 83.2 °F 63.7 °F 54% 30.00 in 10.0 mi East 9.2 mph - N/A   Clear
9:15 PM 80.8 °F 82.4 °F 64.4 °F 57% 30.01 in 10.0 mi ESE 8.1 mph - N/A   Clear
9:35 PM 79.9 °F - 64.8 °F 60% 30.01 in 10.0 mi ESE 6.9 mph - N/A   Clear
9:55 PM 79.2 °F - 64.8 °F 61% 30.02 in 7.0 mi ESE 4.6 mph - N/A   Clear
10:15 PM 77.9 °F - 64.4 °F 63% 30.02 in 7.0 mi ESE 4.6 mph - N/A   Clear
10:35 PM 77.0 °F - 64.4 °F 65% 30.02 in 7.0 mi ESE 4.6 mph - N/A   Clear
10:55 PM 76.1 °F - 64.4 °F 67% 30.02 in 10.0 mi SE 3.5 mph - N/A   Clear
11:15 PM 75.4 °F - 64.4 °F 69% 30.03 in 10.0 mi SE 3.5 mph - N/A   Clear
11:35 PM 75.2 °F - 63.9 °F 68% 30.03 in 7.0 mi Calm Calm - N/A   Clear
11:55 PM 75.4 °F - 64.4 °F 69% 30.02 in 10.0 mi Calm Calm - N/A   Clear